Wind_Speed
31 30 31 29 27 24 23 23 20 18 17 15 13 12 11 11 10 12 13 14 11 11 9 9 9 6 4 8 9 9 11 8 9 8 11 11 16 19 16 13 12 19 20
33 30 31 31 28 26 25 22 20 17 14 12 12 11 11 10 9 10 13 12 8 8 7 9 5 7 6 6 8 12 15 14 11 11 7 11 13 15 13 16 13 15 17
36 33 32 32 31 28 26 22 19 17 15 13 11 11 13 10 6 8 10 10 7 4 3 6 7 7 7 7 10 8 6 6 10 7 11 13 14 14 10 12 16 16 15
36 35 30 35 33 30 27 24 22 19 17 13 13 11 10 8 4 10 8 5 4 2 2 4 6 9 9 10 7 6 7 5 9 9 9 13 14 13 8 13 16 16 13
36 36 33 32 33 31 29 26 23 19 14 12 12 9 6 5 6 9 11 4 1 0 4 5 6 8 8 7 10 11 13 13 8 10 14 20 20 15 14 15 17 13 14
36 36 31 28 31 31 28 25 19 16 12 10 9 7 4 8 7 9 12 3 0 2 4 5 6 8 8 9 12 14 17 18 21 20 23 27 23 14 11 12 20 11 10
35 34 32 28 27 28 27 23 20 17 13 12 10 7 9 11 10 10 7 5 1 5 5 6 7 7 8 10 12 14 20 23 24 25 25 28 29 19 11 15 18 5 10
31 33 32 30 27 27 26 25 21 19 16 14 11 10 13 11 9 6 4 5 3 6 6 6 2 7 7 8 7 9 15 19 23 25 25 30 31 29 11 11 14 8 6
30 31 33 31 30 28 27 27 23 20 16 17 13 12 14 10 10 8 6 7 6 7 6 6 5 6 6 7 6 10 10 14 17 20 24 28 30 30 27 19 19 10 7
32 30 33 32 30 30 30 27 23 20 17 17 14 16 13 11 11 11 7 8 10 9 8 7 7 6 6 6 7 7 18 19 12 17 19 21 23 30 31 29 27 26 25
28 27 28 30 31 28 27 27 24 21 19 16 16 19 14 12 13 14 13 8 10 9 8 8 8 7 7 6 6 10 14 16 13 10 10 10 13 26 29 30 34 31 29
24 25 26 28 29 27 28 27 23 20 20 19 25 21 17 15 15 18 13 10 8 8 7 8 8 7 8 8 9 14 16 14 10 7 9 16 14 21 23 26 27 30 28
23 25 26 27 26 24 26 25 22 24 24 24 27 24 19 20 22 21 18 16 11 10 7 6 7 8 8 9 11 14 12 11 5 6 10 12 14 17 19 22 20 27 27
22 24 25 27 25 25 23 22 23 25 25 25 25 24 22 23 24 24 23 21 17 17 14 12 9 9 11 10 12 10 8 8 5 6 9 11 13 14 17 18 18 20 21
20 23 25 25 26 25 21 20 23 18 26 28 22 21 24 26 25 23 21 24 24 21 18 14 14 13 12 12 8 3 7 8 8 6 7 9 12 14 14 13 13 18 21
20 24 23 22 28 24 27 25 24 25 21 24 21 16 13 15 19 22 23 23 22 19 19 16 15 13 11 12 9 7 7 6 7 6 6 9 9 12 14 14 16 17 19
19 20 23 26 25 23 23 26 26 25 23 23 21 20 17 10 12 11 23 20 19 16 18 18 16 14 11 11 11 9 7 8 8 6 6 10 12 11 13 13 15 14 21
17 19 22 26 22 26 23 19 17 20 20 22 23 23 20 14 15 14 20 20 23 17 15 13 14 13 14 14 13 12 12 9 10 8 8 8 9 9 10 12 12 13 15
19 18 10 22 21 25 24 19 16 18 13 18 21 25 22 19 14 17 19 23 22 21 17 15 13 16 16 17 15 17 15 12 11 11 10 10 12 11 11 11 14 14 14
18 19 17 19 14 14 12 11 7 10 15 13 13 21 24 24 23 22 20 25 22 21 20 17 18 18 18 21 20 21 19 16 14 14 11 10 11 12 13 13 13 14 13
5 7 7 12 10 12 12 10 7 8 5 3 2 2 15 21 23 21 22 26 26 24 21 20 20 21 22 24 23 25 23 20 17 15 14 13 12 11 11 10 11 12 15
12 6 13 12 9 12 8 8 12 13 11 6 4 2 1 8 16 18 22 23 31 27 20 18 18 23 24 26 28 28 26 23 21 20 17 17 17 15 14 13 12 13 13
7 10 11 11 9 8 4 5 9 10 7 12 6 3 2 2 4 9 15 21 24 34 27 25 22 23 26 27 26 28 28 25 23 23 20 20 20 18 17 16 14 13 14
7 8 8 11 10 13 8 4 7 6 7 6 6 8 4 5 6 11 12 17 16 22 32 27 26 26 26 27 28 29 26 25 24 24 22 23 22 21 19 19 17 15 16
11 10 5 10 10 5 4 3 4 5 4 4 2 1 1 1 4 5 8 12 14 14 22 32 29 25 29 30 28 32 27 27 26 27 25 24 24 23 22 22 19 20 20
15 12 10 8 8 6 7 4 2 4 4 5 4 4 5 5 5 5 7 13 14 10 14 25 36 29 29 30 29 29 26 25 29 29 28 27 27 26 26 23 23 23 22
Wind_Direction
227 228 225 226 230 236 235 234 236 242 246 263 283 297 313 317 320 328 330 326 338 2 13 41 46 38 22 14 23 21 59 68 34 20 6 9 357 2 12 8 354 347 345
225 227 227 227 229 234 240 243 245 250 258 276 286 297 310 315 335 342 315 331 353 6 31 26 45 30 20 63 31 36 51 47 40 24 37 8 8 3 16 13 9 358 348
222 224 224 226 229 232 238 243 244 247 256 273 274 289 303 310 346 299 327 335 5 39 50 36 29 37 42 53 63 62 48 47 31 26 28 354 351 1 26 5 1 359 342
215 224 226 223 228 231 236 242 247 247 255 263 266 271 283 303 327 282 323 333 25 67 51 46 36 43 53 45 51 73 71 91 45 16 19 353 1 9 43 22 8 3 5
211 222 228 224 228 231 235 240 244 248 249 254 252 258 285 345 272 272 319 303 20 70 83 68 59 61 65 42 55 54 55 56 58 36 35 19 19 30 34 18 12 1 350
212 220 225 226 225 231 234 237 233 236 239 234 243 228 227 250 255 274 311 313 163 103 97 93 79 72 68 67 58 55 53 49 52 49 43 34 28 38 39 22 4 358 354
214 218 222 226 223 226 230 230 228 229 223 225 230 218 215 237 264 285 286 289 159 142 124 116 84 90 79 60 52 52 47 43 45 41 40 35 26 15 18 24 8 3 359
212 217 221 225 224 223 226 225 216 232 229 224 220 210 225 234 250 252 281 244 160 148 133 119 93 88 90 67 40 41 45 44 37 32 36 38 36 28 28 37 32 14 2
204 213 218 225 226 221 224 223 223 223 216 223 220 207 227 229 233 212 240 209 184 163 148 157 133 110 117 104 79 59 31 54 34 30 30 34 38 31 35 51 49 66 31
209 211 217 221 223 223 226 225 226 222 221 219 209 218 228 230 217 201 223 211 186 181 171 161 136 126 124 108 91 76 76 67 54 35 32 28 27 35 39 44 51 50 50
215 211 215 218 220 220 220 223 225 218 214 202 203 220 222 225 209 193 190 219 196 190 182 174 158 139 128 111 97 97 84 77 63 40 22 60 18 34 33 36 41 48 49
211 210 215 215 216 215 217 222 219 211 201 191 210 220 218 217 203 196 202 215 199 198 191 169 166 149 138 122 113 103 88 83 70 25 28 51 58 36 32 34 39 42 45
211 208 212 215 212 205 209 213 209 199 199 204 215 223 217 208 202 200 194 202 202 197 205 156 174 160 146 132 117 102 93 92 70 53 33 57 49 39 36 38 39 39 45
211 204 203 210 202 202 208 207 201 201 193 209 215 216 222 212 207 202 200 199 202 200 202 198 190 175 158 145 130 127 122 138 121 80 52 54 67 50 44 51 64 36 47
203 201 203 208 192 197 190 196 190 214 198 217 231 234 225 217 217 216 215 208 205 209 208 198 191 188 178 160 141 162 140 110 108 105 93 72 64 69 70 70 41 47 50
207 202 202 195 186 193 189 191 192 203 208 212 241 247 250 229 225 214 214 210 213 218 220 216 199 194 193 174 176 172 149 175 133 121 105 116 94 76 76 71 57 52 55
208 202 194 187 186 190 197 199 199 203 203 211 211 223 243 243 206 207 212 217 224 219 219 219 210 197 192 177 200 189 199 178 148 149 114 94 90 87 87 80 75 61 51
207 205 200 190 193 187 191 194 202 216 208 205 211 219 229 227 217 220 205 209 209 208 211 219 207 199 191 196 198 194 215 199 167 154 135 116 109 103 98 97 87 85 66
181 168 184 191 189 192 188 179 191 195 189 221 218 220 220 209 211 217 214 214 216 210 197 213 217 212 202 207 201 209 222 216 181 168 171 157 150 157 154 138 113 98 100
174 170 158 141 122 113 127 146 132 147 193 209 246 224 213 208 208 207 210 215 220 224 213 197 219 220 214 215 207 213 221 215 197 175 178 183 144 128 114 104 107 120 113
89 157 138 167 155 114 112 137 155 187 181 210 247 182 224 224 219 223 223 219 220 223 215 200 217 223 221 220 218 218 222 220 207 186 188 181 154 138 137 154 139 127 120
23 78 115 106 106 128 117 123 109 111 115 160 172 104 198 224 231 239 239 233 224 221 210 205 218 228 227 228 229 226 224 222 210 193 197 190 169 177 170 157 154 153 146
132 60 55 89 87 72 82 286 235 195 142 78 108 153 40 45 271 266 255 251 240 238 207 202 215 224 237 240 240 233 227 223 210 201 201 196 185 187 174 166 177 168 154
95 113 71 65 72 105 163 173 123 172 175 186 116 82 33 2 328 300 278 282 259 247 232 208 213 222 235 236 244 241 233 228 216 204 209 203 198 191 183 179 191 171 177
46 52 66 77 92 148 175 94 97 120 177 172 193 195 265 28 340 302 304 291 284 271 240 226 216 221 226 242 242 245 240 229 216 212 211 207 202 203 193 192 192 182 200
44 47 48 55 69 111 166 151 98 117 130 143 181 256 281 283 280 280 304 316 307 288 260 241 223 223 222 234 243 242 249 234 219 220 219 211 201 208 202 202 199 198 204
Height
1524 1529 1533 1537 1540 1544 1547 1550 1553 1555 1557 1557 1557 1556 1555 1554 1554 1552 1550 1548 1546 1544 1542 1542 1541 1540 1538 1537 1535 1533 1532 1532 1533 1532 1529 1527 1524 1522 1520 1517 1513 1509 1506
1518 1523 1528 1532 1536 1539 1542 1546 1549 1551 1553 1554 1554 1554 1554 1553 1552 1552 1550 1547 1546 1544 1544 1543 1541 1540 1539 1538 1536 1536 1535 1535 1534 1533 1530 1527 1524 1521 1519 1517 1515 1511 1507
1513 1518 1523 1527 1531 1535 1538 1542 1546 1548 1550 1551 1552 1552 1552 1551 1552 1550 1549 1547 1546 1545 1545 1543 1541 1541 1540 1539 1539 1538 1537 1536 1535 1532 1531 1527 1524 1520 1519 1516 1513 1510 1507
1510 1514 1519 1523 1527 1531 1535 1539 1542 1545 1547 1548 1549 1550 1551 1550 1551 1549 1548 1546 1546 1545 1544 1543 1542 1542 1541 1541 1540 1538 1537 1535 1534 1532 1530 1527 1523 1520 1519 1517 1514 1511 1508
1506 1510 1513 1519 1524 1528 1531 1535 1538 1541 1544 1546 1546 1548 1548 1549 1549 1548 1547 1546 1546 1545 1545 1545 1544 1544 1543 1543 1541 1539 1538 1535 1533 1531 1529 1527 1522 1520 1519 1517 1514 1512 1509
1502 1505 1511 1516 1520 1524 1528 1532 1535 1538 1541 1543 1544 1546 1547 1547 1547 1547 1547 1546 1545 1545 1546 1546 1546 1545 1545 1544 1543 1542 1540 1538 1535 1533 1530 1527 1524 1521 1519 1517 1514 1513 1511
1498 1503 1508 1512 1516 1520 1525 1529 1532 1536 1539 1541 1542 1544 1546 1546 1545 1545 1546 1545 1546 1546 1546 1547 1547 1547 1547 1545 1544 1544 1542 1540 1537 1536 1532 1529 1525 1522 1520 1517 1515 1512 1510
1496 1500 1505 1509 1513 1517 1522 1526 1530 1533 1536 1538 1540 1542 1542 1544 1544 1544 1545 1545 1546 1546 1546 1547 1548 1547 1547 1547 1546 1546 1545 1543 1542 1539 1536 1532 1529 1525 1521 1519 1517 1515 1511
1493 1496 1500 1505 1510 1515 1518 1522 1526 1530 1534 1535 1537 1540 1540 1542 1542 1542 1543 1544 1544 1545 1546 1547 1548 1548 1548 1548 1549 1548 1547 1545 1545 1542 1539 1537 1535 1530 1525 1521 1516 1514 1513
1489 1493 1497 1502 1506 1511 1515 1519 1524 1527 1531 1533 1535 1536 1538 1539 1540 1541 1542 1543 1543 1545 1546 1546 1547 1548 1549 1549 1549 1550 1550 1548 1548 1545 1543 1542 1540 1536 1531 1526 1522 1517 1514
1487 1491 1495 1498 1503 1507 1512 1516 1521 1525 1528 1531 1533 1533 1536 1537 1538 1540 1540 1542 1543 1544 1545 1546 1548 1548 1548 1550 1550 1551 1551 1550 1552 1551 1548 1547 1545 1541 1536 1533 1529 1524 1521
1484 1488 1491 1495 1499 1504 1507 1512 1517 1522 1526 1529 1528 1531 1533 1535 1537 1538 1540 1541 1542 1543 1545 1546 1548 1549 1549 1550 1551 1552 1552 1553 1553 1553 1551 1548 1547 1544 1541 1538 1536 1533 1528
1481 1484 1487 1491 1496 1500 1503 1508 1513 1518 1521 1523 1525 1526 1530 1532 1534 1536 1538 1540 1541 1542 1542 1546 1548 1549 1551 1552 1552 1553 1554 1554 1555 1554 1554 1551 1549 1548 1546 1542 1540 1540 1537
1478 1481 1485 1487 1493 1496 1500 1505 1510 1513 1517 1518 1520 1522 1525 1528 1531 1533 1536 1538 1540 1541 1542 1544 1547 1549 1550 1552 1552 1553 1554 1555 1556 1555 1555 1554 1552 1550 1549 1547 1545 1544 1543
1476 1479 1482 1486 1491 1494 1499 1502 1506 1510 1513 1513 1516 1518 1520 1522 1525 1529 1532 1534 1537 1540 1542 1543 1545 1548 1549 1552 1553 1554 1555 1556 1556 1556 1556 1556 1555 1553 1552 1553 1551 1550 1547
1474 1476 1479 1484 1488 1491 1494 1498 1502 1506 1510 1515 1515 1516 1518 1521 1524 1529 1532 1535 1539 1542 1544 1544 1545 1548 1550 1553 1554 1555 1556 1557 1558 1557 1557 1557 1558 1556 1556 1556 1555 1553 1552
1473 1475 1477 1481 1484 1489 1492 1496 1498 1503 1507 1511 1514 1515 1517 1520 1522 1526 1530 1533 1537 1540 1542 1545 1545 1546 1549 1552 1555 1556 1556 1557 1560 1559 1558 1558 1558 1559 1559 1559 1559 1558 1557
1471 1474 1476 1479 1481 1484 1488 1493 1497 1500 1504 1507 1511 1513 1516 1519 1522 1525 1528 1531 1533 1537 1540 1543 1546 1547 1548 1551 1554 1556 1556 1557 1559 1561 1560 1560 1561 1561 1561 1562 1562 1562 1561
1467 1467 1470 1475 1478 1480 1483 1489 1494 1496 1501 1503 1507 1510 1513 1517 1521 1524 1526 1529 1532 1535 1538 1542 1544 1546 1549 1550 1552 1553 1555 1556 1556 1560 1562 1561 1561 1562 1562 1563 1564 1565 1565
1468 1467 1464 1466 1470 1477 1481 1485 1490 1494 1497 1501 1505 1508 1511 1514 1516 1519 1522 1526 1529 1533 1536 1540 1542 1544 1546 1547 1549 1550 1553 1554 1556 1556 1561 1561 1560 1561 1563 1564 1566 1567 1567
1472 1472 1470 1474 1472 1476 1484 1488 1491 1497 1500 1500 1503 1507 1510 1512 1515 1517 1519 1521 1524 1528 1531 1535 1539 1540 1542 1545 1546 1547 1549 1552 1554 1556 1558 1561 1561 1561 1565 1567 1568 1568 1569
1485 1481 1474 1477 1481 1484 1485 1493 1494 1496 1501 1500 1502 1505 1508 1510 1514 1517 1518 1520 1521 1525 1530 1534 1537 1537 1537 1540 1542 1543 1545 1548 1551 1553 1556 1560 1561 1562 1563 1566 1568 1570 1571
1482 1475 1480 1477 1480 1481 1490 1495 1502 1504 1503 1502 1502 1505 1506 1509 1512 1514 1516 1518 1520 1521 1523 1529 1531 1534 1533 1536 1537 1538 1541 1543 1546 1549 1553 1556 1560 1561 1562 1564 1567 1569 1571
1480 1477 1482 1484 1483 1491 1500 1508 1503 1502 1501 1502 1502 1505 1506 1506 1508 1511 1513 1514 1516 1517 1520 1523 1525 1529 1531 1533 1534 1535 1538 1541 1545 1546 1549 1554 1558 1559 1561 1563 1565 1568 1571
1482 1483 1485 1481 1482 1495 1500 1500 1501 1500 1501 1499 1500 1503 1503 1502 1506 1508 1510 1511 1512 1512 1514 1517 1520 1523 1527 1527 1531 1533 1537 1539 1541 1544 1545 1549 1555 1558 1559 1561 1562 1565 1568
1492 1492 1492 1495 1495 1497 1496 1498 1503 1499 1499 1495 1494 1498 1498 1500 1504 1505 1507 1508 1509 1509 1511 1512 1514 1517 1520 1523 1525 1528 1531 1535 1538 1541 1542 1544 1548 1553 1556 1559 1561 1562 1563